Location: Clanezzo
(45.7500°N, 9.6000°E)
Time: 02:55:58
(UTC+00:00)

ERS-1 Rocket - Pass Details

Date: 12 May 2021
Orbit: 754 x 757 km, 98.4° (Epoch: 18 June)

Event Time Altitude Azimuth Distance (km) Brightness Sun altitude
Exits shadow 19:50:10 12° 112° (ESE) 2,113 4.7 -10.5°
Maximum altitude 19:53:39 25° 63° (ENE) 1,503 4.3 -11.0°
Drops below altitude 10° 19:57:40 10° 10° (N) 2,293 5.9 -11.5°
Sets 20:00:19 0° 357° (N) 3,223 7.0 -11.9°
